Location: Unspecified
(26.1220°N, 0.0000°E)
Time: 23:07:50
(UTC+00:00)

Envisat - Pass Details

Date: 30 May 2019
Orbit: 764 x 766 km, 98.1° (Epoch: 20 June)

Event Time Altitude Azimuth Distance (km) Brightness Sun altitude
Rises 19:11:23 0° 187° (S) 3,217 6.0 -5.7°
Reaches altitude 10° 19:13:51 10° 195° (SSW) 2,294 5.4 -6.2°
Maximum altitude 19:18:27 36° 261° (W) 1,205 4.6 -7.1°
Drops below altitude 10° 19:23:05 10° 327° (NNW) 2,302 6.6 -8.1°
Sets 19:25:35 0° 336° (NNW) 3,231 7.2 -8.5°
